Regional Weather Roundup
Issued by NWS

Current Version | Previous Version | Text Only | Print | Product List | Glossary On
Versions: 1 2 3 4 5 6 7 8 9 10 11 12 13 14 15 16 17 18 19 20 21 22 23 24 25 26 27
000
ASUS45 KBOU 011507
RWRCO

WEATHER ROUNDUP FOR COLORADO
NATIONAL WEATHER SERVICE DENVER/BOULDER CO
900 AM MDT SUN MAY 01 2016

NOTE: "FAIR" INDICATES FEW OR NO CLOUDS BELOW 12000 FEET WITH NO
SIGNIFICANT WEATHER AND/OR OBSTRUCTIONS TO VISIBILITY.

COZ001>005-013-030-031-011600-
...NORTHWEST COLORADO...

CITY           SKY/WX    TMP DP  RH WIND       PRES   REMARKS
CRAIG          FAIR      42  22  44 E17G26    30.15S
HAYDEN         FAIR      39  18  41 E22       30.16S
MEEKER         FAIR      44  25  47 NE14      30.09S
MOUNT WERNER   NOT AVBL
STEAMBOAT SPGS FAIR      36  19  50 E13G26    30.18R
WALDEN         CLOUDY    30  19  64 NE18G25   30.25S WCI  18
$$

COZ006>008-011-011600-
...WEST CENTRAL VALLEYS...

CITY           SKY/WX    TMP DP  RH WIND       PRES   REMARKS
GRAND JUNCTION FAIR      47  29  49 SW6       30.03R
MONTROSE       PTSUNNY   43  28  55 N5        30.06R
EAGLE          SUNNY     36  25  64 CALM      30.17R
RIFLE          FAIR      48  20  32 E17G26    30.07S
DELTA          NOT AVBL
NUCLA          NOT AVBL
$$

COZ017>023-064>068-011600-
...SOUTHWEST COLORADO...

CITY           SKY/WX    TMP DP  RH WIND       PRES   REMARKS
DURANGO        LGT RAIN  37  35  92 SE3       30.04R
CORTEZ         LGT RAIN  40  36  86 NE3       30.02R
PAGOSA SPRINGS LGT SNOW  32  32  99 NE6       30.09R WCI  26
TELLURIDE      CLOUDY    34  30  86 CALM      30.05R
WOLF CREEK PAS SNOW      14  14 100 NE18      30.16R VSB 1/2 WCI  -3
$$

COZ009-010-012-014-032>034-037-058>063-011600-
...CENTRAL COLORADO...

CITY           SKY/WX    TMP DP  RH WIND       PRES   REMARKS
ASPEN          FAIR      38  17  42 S8        30.09S
BUENA VISTA    CLOUDY    30  21  70 CALM      30.26R
COPPER MTN     NOT AVBL
BERTHOUD PASS  CLOUDY    10   1  67 SE8G25    30.19R WCI  -1
COTTONWOOD PAS FLURRIES  28  19  69 E5        30.24R WCI  23
GUNNISON       CLOUDY    36  18  48 E17       30.16R
KREMMLING      FAIR      37  19  48 E14G21    30.21S
LEADVILLE      CLOUDY    20  16  84 S17       30.18R WCI   5
MONARCH PASS   CLOUDY    14  10  85 MISG      30.22R
SALIDA         CLOUDY    32  25  73 NE5       30.34R WCI  28
SUNLIGHT       FAIR     N/A N/A N/A NE9       30.14R
WILKERSON PASS FOG      N/A N/A N/A NE7       30.24R VSB 3/4
$$

COZ069>075-011600-
...SAN LUIS VALLEY/SANGRE DE CRISTO MOUNTAINS...

CITY           SKY/WX    TMP DP  RH WIND       PRES   REMARKS
ALAMOSA        LGT SNOW  30  28  92 W7        30.16S FOG     WCI  23
LA VETA PASS   SNOW      21  18  86 MISG      30.20S VSB 1/4
SAGUACHE       LGT SNOW  30  28  93 W9        30.19R WCI  22
$$

COZ035-036-038>040-011600-
...NORTHERN COLORADO FRONT RANGE...

CITY           SKY/WX    TMP DP  RH WIND       PRES   REMARKS
DENVER INTL AP LGT SNOW  33  30  88 N9        30.32R VSB 3/4 WCI  25
DMNS CITY PARK   N/A     33  33  97 N8        30.33R WCI  26
AURORA         LGT SNOW  32  32 100 N12       30.32R FOG     WCI  23
FRONT RANGE AP CLOUDY    32  32 100 N13       30.32R WCI  22
ERIE MUNI ARPT LGT SNOW  34  33  99 NW3       30.34R
BOULDER MUN AP LGT SNOW  34  32  93 W3        30.34R
CENTENNIAL     LGT SNOW  32  31  96 N14       30.31R FOG     WCI  22
BROOMFIELD     LGT SNOW  32  32 100 NW9       30.33R WCI  24
FORT COLLINS   CLOUDY    36  30  80 N9        30.35R
LONGMONT       LGT SNOW  38  33  83 N7        30.36R
$$

COZ041-046-047-076>085-087-088-011600-
...PIKES PEAK/PALMER DIVIDE AND SOUTHERN FOOTHILLS...

CITY           SKY/WX    TMP DP  RH WIND       PRES   REMARKS
COLO. SPRINGS  FLURRIES  34  27  75 N15       30.29R WCI  24
A. F. ACADEMY  MIX PCPN  32  28  86 N14G22    30.28R WCI  22
SCHRIEVER AFB  NOT AVBL
ELLICOTT       NOT AVBL
FALCON         CLOUDY    32  28  84 N17G25    30.28R FOG     WCI  21
FORT CARSON    CLOUDY    38  28  65 N20       30.27R
LIMON          CLOUDY    32  31  96 N23       30.27R FOG     WCI  19
MONUMENT HILL  CLOUDY    28  27  93 N14       30.29R WCI  17
TRINIDAD       CLOUDY    35  30  82 N14       30.29R WCI  26
$$

COZ042>045-048>051-090-091-011600-
...NORTHEAST COLORADO...

CITY           SKY/WX    TMP DP  RH WIND       PRES   REMARKS
GREELEY ARPT   CLOUDY    37  34  87 NE9       30.34R
AKRON          LGT SNOW  33  31  92 NW12      30.31R FOG     WCI  24
BURLINGTON     CLOUDY    36  33  89 N26G35    30.23R
WRAY           NOT AVBL
STERLING       CLOUDY    37  36  93 NW13      30.30R
HOLYOKE        NOT AVBL
FORT MORGAN    LGT RAIN  36  34  93 NW12      30.32S
$$

COZ086-089-092>099-011600-
...SOUTHEAST COLORADO...

CITY           SKY/WX    TMP DP  RH WIND       PRES   REMARKS
PUEBLO         CLOUDY    43  29  57 N17       30.29R
LA JUNTA       CLOUDY    40  31  70 N16       30.28R
LAMAR          CLOUDY    41  33  73 N16       30.26R
SPRINGFIELD      N/A     39  31  72 N33G39    30.18F
$$




USA.gov is the U.S. government's official web portal to all federal, state and local government web resources and services.